Wind_Speed
8 9 11 4 5 5 5 7 7 2 5 6 11 14 16 16 14 4 5 9 11 12 14 17 18 19 19 19 20 19 21 19 17 16 15 14 13 12 12 12 12 12 11 11
8 12 3 1 2 6 6 7 4 4 6 1 10 16 14 16 14 11 9 7 7 11 13 16 20 22 22 22 22 21 21 20 22 17 17 16 14 13 14 13 12 13 12 13
16 6 6 4 6 8 10 8 6 5 3 4 4 12 16 13 16 14 12 8 5 7 12 15 18 22 23 23 24 25 24 23 23 21 15 15 13 13 11 12 13 14 14 14
10 7 7 9 10 7 12 4 3 3 7 3 4 6 16 13 17 18 17 14 10 8 6 13 17 20 22 23 24 25 24 25 24 22 19 20 18 15 15 14 13 13 15 16
5 8 11 12 10 3 10 4 4 5 8 7 2 1 10 12 16 19 19 18 16 12 6 7 14 17 20 20 22 23 24 25 25 25 25 22 20 19 16 15 14 14 15 16
6 2 6 10 4 9 4 9 11 7 6 6 5 4 11 9 15 16 18 19 19 18 14 1 8 11 15 17 19 20 23 26 25 25 24 25 21 22 18 18 16 15 17 18
10 12 7 8 12 10 10 13 6 7 7 6 4 6 6 9 11 14 16 18 19 18 18 13 4 3 8 11 14 15 18 21 24 26 26 25 24 22 22 21 18 18 17 17
9 9 3 7 9 3 10 9 4 4 3 10 3 8 6 9 10 12 14 16 17 18 18 17 15 7 1 5 11 15 16 18 21 24 26 25 25 24 24 23 21 21 20 19
7 7 7 3 3 6 7 6 8 1 3 6 7 9 8 7 10 12 14 16 18 18 18 17 18 18 9 2 4 9 12 14 18 21 21 22 23 24 24 23 21 22 22 21
2 7 2 6 3 5 6 3 6 4 3 6 8 9 8 5 7 10 13 15 16 17 18 17 19 19 17 11 2 3 7 11 13 16 18 19 20 22 23 23 22 22 21 20
7 7 10 7 2 4 5 8 1 5 5 7 6 7 6 7 6 8 11 12 14 14 15 15 18 20 19 16 10 3 3 6 9 12 15 17 19 21 22 22 23 23 20 20
8 5 8 3 5 2 2 1 8 7 3 1 8 5 7 8 7 7 9 10 11 11 12 12 16 18 18 15 16 15 11 9 8 6 11 17 18 20 21 22 22 21 22 20
9 6 7 8 10 6 6 2 2 6 5 10 7 5 7 7 5 4 6 7 7 8 10 10 12 14 15 13 13 13 14 16 14 12 11 10 13 13 15 16 16 18 19 20
3 3 6 5 4 3 6 6 3 8 9 7 8 11 9 6 2 2 5 5 5 7 8 9 10 12 13 14 14 12 12 10 12 10 11 11 10 11 14 16 13 15 15 18
5 4 2 3 1 2 3 4 4 8 6 8 8 6 10 4 0 3 3 5 6 7 9 10 11 13 13 13 14 15 14 14 13 9 8 12 17 18 16 15 17 20 20 22
3 2 6 5 3 4 4 3 3 3 5 3 4 4 5 4 1 3 5 9 11 9 10 12 13 15 16 16 16 16 16 16 14 12 11 10 10 10 11 12 14 18 22 21
3 6 7 8 5 3 8 11 7 2 4 4 7 7 4 3 3 5 10 12 13 12 12 14 14 16 17 19 18 18 19 18 16 14 13 11 10 11 12 12 13 16 18 18
4 7 4 3 5 12 5 3 2 6 3 5 1 2 1 4 7 10 12 9 11 12 14 15 18 19 20 20 21 20 19 18 17 15 13 11 12 13 13 13 15 15 15 16
6 8 5 7 10 3 6 6 6 8 7 8 6 3 3 4 10 8 5 8 12 14 17 18 20 22 23 23 20 19 21 20 17 17 15 14 13 14 14 14 16 15 16 17
8 7 9 6 11 10 8 8 4 2 9 8 5 3 4 7 8 4 14 13 16 18 18 20 20 21 20 21 22 21 20 22 21 19 17 18 16 15 16 15 16 17 17 18
8 9 12 9 8 4 7 9 8 6 5 9 3 2 5 7 8 13 13 15 17 16 18 20 20 18 17 18 19 19 21 22 23 23 22 23 21 18 18 17 15 16 17 18
7 6 7 5 6 10 12 10 5 6 7 3 2 1 4 8 10 10 12 13 15 15 17 17 18 19 19 18 16 18 22 24 25 25 25 24 23 22 19 19 17 16 17 17
5 4 1 4 4 4 15 2 5 4 4 3 2 1 5 8 8 10 11 11 14 16 17 18 18 20 19 18 17 19 22 24 25 24 26 26 24 23 21 19 17 16 14 17
4 2 3 4 7 9 11 6 6 4 3 3 0 4 6 7 8 9 10 11 13 14 15 16 18 18 20 20 20 19 23 25 23 23 24 24 24 23 21 18 21 15 12 13
3 6 5 3 5 6 9 9 8 6 4 3 0 3 4 6 8 10 10 12 15 15 15 16 17 19 20 20 20 21 23 23 22 21 21 22 21 22 20 19 20 18 14 13
7 5 6 4 10 7 5 13 10 9 6 3 1 2 3 5 7 9 10 12 14 14 16 17 18 18 19 19 20 21 21 22 22 20 18 19 20 18 17 16 18 19 17 17
Wind_Direction
204 253 235 317 340 320 313 312 308 349 78 78 65 49 38 34 34 56 183 201 214 221 199 203 207 205 203 203 202 202 201 200 201 205 208 210 214 211 215 218 218 221 230 238
206 232 256 343 271 274 276 286 286 292 93 257 80 67 55 50 45 44 26 338 253 228 209 198 207 207 207 203 205 207 206 203 201 209 211 217 222 223 222 222 224 228 232 232
227 105 98 194 276 248 242 289 347 336 336 151 206 72 49 56 54 42 39 12 323 283 252 205 203 207 207 210 208 207 206 205 204 205 205 209 223 233 236 234 228 231 230 231
234 247 230 250 261 267 277 69 305 290 295 15 321 113 45 33 42 38 28 28 14 348 242 229 204 208 210 209 211 212 210 206 206 201 205 208 216 219 229 231 236 234 235 237
147 198 213 236 255 240 297 335 306 302 285 259 89 191 36 34 21 24 24 24 24 19 359 274 220 211 214 207 210 211 210 210 209 205 205 210 212 221 236 232 235 227 236 242
272 159 258 256 271 239 305 265 245 247 241 174 14 265 50 23 8 11 20 22 23 20 15 8 251 215 217 210 209 208 206 209 209 208 210 212 216 217 223 224 234 231 240 239
197 225 230 241 251 233 239 244 245 197 191 56 89 67 55 43 30 22 22 25 24 26 29 39 87 186 226 211 208 214 213 214 211 210 210 215 219 219 222 228 230 241 244 238
193 165 226 163 245 302 208 307 301 201 218 115 174 139 101 84 54 41 37 35 30 30 33 34 26 42 13 228 211 214 212 215 214 216 218 217 220 225 227 227 229 238 239 250
180 110 109 103 206 275 153 241 13 252 177 233 108 103 152 100 60 44 38 36 35 32 31 31 34 21 17 358 228 223 219 218 221 218 221 224 224 227 233 236 234 233 237 245
103 161 113 124 200 89 304 16 239 228 196 245 156 168 97 114 51 45 42 38 37 37 34 30 28 29 21 11 14 253 228 229 229 227 224 225 227 232 238 241 240 242 246 243
231 267 139 197 338 2 181 206 215 313 308 314 236 128 102 105 70 55 50 42 37 33 35 35 30 27 25 23 20 9 278 235 233 232 230 230 227 227 230 235 242 243 243 240
211 247 238 59 123 16 292 6 269 315 138 193 304 79 121 112 91 59 53 39 34 37 28 26 28 28 28 24 18 20 23 14 346 296 249 244 242 240 235 226 230 237 241 236
184 227 179 185 186 191 230 149 291 289 290 285 304 92 131 127 115 73 36 25 33 16 24 24 25 24 18 21 9 351 330 319 314 314 324 317 264 248 255 257 255 251 244 242
208 248 310 6 40 351 189 207 243 276 287 325 283 121 168 155 142 57 21 14 16 18 17 17 14 14 6 2 354 342 331 324 325 291 274 281 292 312 309 304 303 292 273 261
245 236 202 34 79 233 224 200 242 256 323 287 341 279 144 161 81 15 2 1 340 350 354 356 350 346 343 344 341 340 334 329 328 316 275 253 251 273 278 277 276 272 269 272
214 182 177 155 181 200 217 208 238 243 260 286 258 163 109 137 228 299 340 343 331 324 332 333 330 325 324 326 323 323 323 326 316 307 302 285 269 269 272 279 280 266 266 264
234 164 212 248 170 224 241 215 229 237 256 290 227 69 135 211 293 330 326 328 323 325 328 326 323 319 316 313 312 308 310 314 314 304 299 296 290 284 282 282 276 269 270 268
222 213 232 275 185 245 65 111 252 252 222 205 228 182 315 326 324 319 316 329 335 328 322 319 315 311 306 306 304 305 303 300 302 304 299 297 293 285 283 279 272 277 281 279
245 221 211 233 229 206 186 195 197 211 221 211 227 206 253 311 315 299 67 344 324 318 315 314 314 311 311 302 297 298 299 298 292 292 296 303 305 295 288 284 282 277 283 289
219 232 247 198 255 253 74 129 123 142 245 161 207 204 305 321 296 345 356 331 323 321 321 317 314 307 310 318 314 307 297 297 295 294 295 298 299 296 289 286 286 281 278 277
187 215 221 208 246 129 131 141 166 231 82 142 170 281 294 289 314 318 320 326 331 326 312 313 315 309 313 313 315 309 296 294 298 295 292 293 293 292 286 285 286 283 280 284
197 210 204 233 249 243 150 152 224 95 125 146 196 272 287 298 305 314 325 326 330 325 323 322 321 316 316 317 313 306 304 307 310 296 289 284 286 287 286 283 284 278 277 278
226 324 340 313 42 119 166 9 134 147 156 174 227 302 305 303 318 324 324 331 330 331 328 324 319 314 311 312 312 305 299 299 296 294 287 283 281 280 279 276 275 278 278 281
187 212 248 208 146 162 169 159 162 162 148 138 313 326 318 322 325 329 330 331 331 334 329 324 322 322 319 314 315 310 308 304 294 285 288 282 277 275 273 273 269 269 266 276
46 168 187 148 156 157 198 196 177 160 151 154 216 321 329 329 335 339 332 335 336 333 334 330 328 323 319 321 316 317 316 319 302 292 290 282 272 269 268 266 262 277 272 274
187 197 222 293 145 215 178 189 178 171 175 168 309 345 352 342 337 337 338 344 342 331 333 333 329 326 322 322 323 323 322 326 322 312 292 296 298 286 271 272 267 267 267 274
Height
780 791 793 780 786 790 795 797 798 784 781 786 796 797 797 790 783 781 781 781 782 784 787 795 801 806 810 816 821 825 829 833 837 839 841 842 843 844 846 847 849 851 852 853
788 796 775 784 788 792 790 796 791 780 782 783 791 800 797 794 795 792 790 783 778 778 781 787 795 800 805 810 815 821 825 829 832 836 838 840 841 841 843 845 846 848 850 851
789 782 781 789 789 793 785 791 791 796 783 780 788 799 800 791 792 791 788 786 782 781 776 778 787 794 799 805 810 814 819 823 826 831 835 839 840 841 842 844 844 845 846 848
783 769 787 789 791 784 793 778 787 791 792 803 781 813 805 798 798 796 791 787 783 778 771 773 777 787 793 799 805 809 814 817 821 825 829 832 834 838 837 839 840 841 843 844
784 785 788 792 783 778 786 777 784 786 789 792 790 795 810 799 806 801 795 789 783 778 775 770 772 778 787 793 799 804 809 813 816 819 822 826 830 833 835 834 835 837 839 840
777 770 778 775 772 776 773 782 778 780 783 804 798 792 820 817 818 808 798 792 786 780 773 774 773 777 782 789 795 799 803 807 812 815 818 820 822 825 826 828 830 833 834 834
777 776 767 771 781 770 780 782 797 806 805 811 794 802 825 815 813 810 804 798 792 785 781 774 776 779 783 787 793 799 802 806 808 810 812 815 818 821 823 825 827 828 827 828
785 804 775 767 772 774 775 768 791 828 810 807 797 820 823 810 808 806 803 800 798 794 789 788 783 783 785 787 790 794 798 802 804 807 809 811 813 815 815 817 819 822 824 826
785 790 770 768 764 767 776 783 763 784 787 794 799 811 806 805 810 809 808 805 804 801 797 796 794 792 787 788 790 793 796 799 801 803 806 807 809 811 810 812 813 814 816 819
772 791 770 770 764 766 770 766 786 777 812 815 801 805 801 816 818 814 813 811 808 806 804 802 800 798 795 790 790 793 795 797 799 800 802 803 804 806 808 809 809 810 811 814
762 773 780 769 777 779 775 775 775 772 783 803 806 799 801 815 817 816 814 813 812 810 808 808 806 804 803 799 796 795 796 797 798 798 798 799 799 799 800 802 804 805 806 807
764 765 783 778 777 772 773 778 774 790 800 785 794 804 803 809 813 813 815 815 814 813 812 811 809 808 807 807 805 803 801 800 798 798 798 798 798 797 795 792 793 796 799 799
766 771 795 794 783 776 777 780 776 773 777 794 808 807 803 811 813 815 816 817 816 816 815 814 812 812 811 811 810 808 807 805 802 801 798 796 797 796 794 793 791 792 792 792
769 766 777 800 798 777 790 786 784 781 790 787 787 802 813 812 815 814 816 816 816 816 816 816 815 816 815 814 811 809 806 804 802 800 798 798 797 795 794 793 789 789 789 789
763 779 783 785 786 783 785 789 791 792 789 803 791 797 799 811 814 815 814 815 815 816 816 817 817 817 816 814 812 809 806 802 800 799 797 796 796 795 792 790 787 786 785 786
766 787 785 798 791 788 794 794 794 795 796 798 797 802 801 810 812 812 813 815 816 814 816 817 817 817 815 814 811 809 806 803 800 797 795 794 793 791 788 785 782 782 780 778
774 781 793 793 794 798 807 792 794 796 797 795 807 798 805 808 811 813 814 814 816 815 817 818 817 816 814 812 810 806 803 801 798 795 792 790 789 787 785 781 780 778 775 773
780 783 784 792 804 822 795 789 792 797 797 797 803 805 810 812 813 813 813 817 818 818 819 817 815 813 811 809 807 804 801 798 795 792 789 786 784 782 781 779 777 773 771 768
771 779 791 802 800 793 801 799 800 803 798 796 802 806 808 811 812 806 814 819 820 819 817 815 814 811 808 806 803 800 797 795 792 788 786 784 781 778 776 773 771 768 765 761
774 777 784 790 803 808 791 791 792 796 808 796 802 807 810 813 816 805 814 818 817 817 816 815 813 810 806 804 801 798 794 791 788 785 783 781 778 774 771 769 766 763 760 757
789 784 789 788 795 789 789 795 796 816 812 802 805 809 813 818 817 816 816 816 816 818 817 813 809 806 805 804 801 797 793 788 785 783 780 776 772 769 766 763 760 757 755 752
785 788 787 785 797 803 788 799 806 801 801 805 809 813 817 818 817 816 816 814 814 814 812 811 808 806 804 802 799 795 792 788 784 780 775 771 768 764 760 757 754 751 748 746
790 778 777 783 786 786 787 791 793 795 801 806 810 812 817 817 816 817 816 815 814 814 813 811 808 804 802 799 796 792 788 784 780 775 771 765 762 759 756 754 751 747 744 741
784 784 780 790 792 790 790 795 797 800 803 809 812 815 816 816 817 816 815 813 812 812 811 808 806 802 799 795 792 788 783 779 774 770 766 760 755 752 750 748 744 739 739 736
777 785 782 786 790 793 793 795 798 804 808 811 815 817 818 818 817 817 815 813 811 811 808 806 803 800 797 793 788 784 779 774 769 765 760 754 749 745 743 742 740 736 734 733
775 775 782 777 775 783 781 791 797 804 809 813 815 816 818 819 818 818 815 813 813 810 806 804 801 798 794 790 785 780 776 771 766 761 756 750 745 741 740 738 736 733 731 729